Location: Antist
(43.1184°N, 0.1270°E)
Time: 19:51:24
(UTC+00:00)

Cosmos 1340 Rocket - Pass Details

Date: 19 January 2020
Orbit: 530 x 558 km, 81.2° (Epoch: 21 February)

Event Time Altitude Azimuth Distance (km) Brightness Sun altitude
Rises 18:17:01 0° 348° (NNW) 2,691 6.3 -14.9°
Reaches altitude 10° 18:19:11 10° 347° (NNW) 1,799 5.4 -15.3°
Maximum altitude 18:23:08 77° 262° (W) 557 2.9 -16.0°
Drops below altitude 10° 18:27:05 10° 176° (S) 1,799 5.5 -16.7°
Sets 18:29:14 0° 175° (S) 2,691 6.4 -17.1°
